Weather in Verkhniy Nergen

Russia / Khabarovsk Krai     49°50′38″N   136°47′51″E
temp.,
°C
wind,
m/s
gust,
m/s
humid.,
%
clouds,
%
prec.,
mm/h
press.,
hPa
HPBL,
m
23 october, sat
sat2301:00+2s713785 0.0 1015481
04:00+1ssw710805 0.0 1015455
07:00+1ssw6108151 0.0 1015433
10:00+3ssw787325 0.0 1016556
13:00+6ssw7861100 0.0 1015820
16:00+8sw576042 0.0 1014809
19:00+6sse46755 0.0 1014116
22:00+5s46840 0.0 1014174
24 october, sun
sun2401:00+4s46875 0.0 1014200
04:00+3ssw58865 0.0 1014301
07:00+3ssw59850 0.0 1014348
10:00+5ssw57752 0.0 1017500
13:00+8s45610 0.0 1018757
16:00+10s46570 0.0 1018567
19:00+7sse48735 0.0 1019152
22:00+6s49791 0.0 1019250
25 october, mon
mon2501:00+5ssw59810 0.0 1019297
04:00+5ssw611770 0.0 1019394
07:00+4ssw612750 0.0 1018444
10:00+6ssw713680 0.0 1019584
13:00+10sw812534 0.0 1017744
16:00+11sw812520 0.0 1016674
19:00+9ssw614625 0.0 1016356
22:00+7ssw7147114 0.0 1016352
26 october, tue
tue2601:00+6ssw714774 0.0 1016405
04:00+6ssw613795 0.0 1016372
07:00+5ssw6128124 0.0 1016369
10:00+7ssw611715 0.0 1016477
13:00+10sw710578 0.0 1014579
16:00+11sw6105781 0.0 1013595
19:00+8ssw497253 0.0 1013145
22:00+9s4972100 0.0 1012237
27 october, wed
wed2701:00+8s587297 0.0 1011209
04:00+8s4973100 0.0 1010283
07:00+7s3975100 0.8 1009356
10:00+8ssw61076100 0.9 1009578
13:00+10ssw587194 0.1 1008661
16:00+10ssw5873100 1.1 1008599
19:00+7s358752 1.1 1009103
22:00+7s2587100 1.6 1010169